Regional Weather Roundup
Issued by NWS

Home | Current Version | Previous Version | Graphics & Text | Print | Product List | Glossary On
Versions: 1 2 3 4 5 6 7 8 9 10 11 12 13 14 15 16 17 18 19 20 21 22 23 24 25 26 27 28 29 30 31 32 33 34 35 36 37 38 39 40 41 42 43 44 45 46 47 48 49 50
000
ASUS43 KDTX 281410
RWRMI
MICHIGAN HOURLY REGIONAL WEATHER ROUNDUP
NATIONAL WEATHER SERVICE DETROIT/PONTIAC MI
1000 AM EDT WED JUN 28 2017

NOTE: "FAIR" INDICATES FEW OR NO CLOUDS BELOW 12,000 FEET WITH NO
SIGNIFICANT WEATHER AND/OR OBSTRUCTION TO VISIBILITY.

MIZ047>049-052>055-059>063-066>070-074>076-081>083-281500-
SOUTHEAST LOWER MICHIGAN

CITY           SKY/WX    TMP DP  RH WIND       PRES   REMARKS
ADRIAN         SUNNY     69  49  48 SW12      30.13R
ALMA           SUNNY     68  53  57 SW9       30.08R
ANN ARBOR      SUNNY     69  53  56 S6        30.11R
BAD AXE        SUNNY     66  51  57 SW8       30.08R
CARO           SUNNY     68  54  60 SW9       30.07S
DETROIT CITY   SUNNY     70  49  47 W10       30.11S
DETROIT        PTSUNNY   70  51  51 SW9       30.12R
FLINT          SUNNY     69  49  48 SW9       30.08S
GROSSE ILE     SUNNY     67  52  57 S5        30.11S
HILLSDALE      MOSUNNY   68  48  49 S9        30.11R
HOWELL         SUNNY     69  48  46 S7        30.09S

CITY           SKY/WX    TMP DP  RH WIND       PRES   REMARKS
JACKSON        MOSUNNY   69  48  47 SW15      30.11R
LAMBERTVILLE   SUNNY     69  51  51 SW5       30.12R
LANSING        SUNNY     71  48  43 SW16      30.10R
LAPEER         FAIR      69  49  49 SW7       30.09S
MASON          SUNNY     68  51  53 SW7       30.10R
MONROE         SUNNY     70  51  52 W6        30.11S
MT. CLEMENS    MOSUNNY   73  50  44 SW10      30.08F
PONTIAC        PTSUNNY   69  49  48 SW8       30.09S
PORT HOPE        N/A     68  50  52 SW8       30.05S
PORT HURON     MOSUNNY   68  50  52 SW6       30.10F
TRI CITIES     SUNNY     67  53  61 SW10      30.06S
MIDLAND        FAIR      68  49  50 SW8       30.05R
TROY           SUNNY     70  44  39 SW9       30.11F
SAGINAW HB     SUNNY     68  48  49 SW9       30.06R
$$
MIZ043>046-050>051-056>058-064>065-071>073-077>080-281500-
SOUTHWEST LOWER MICHIGAN

CITY           SKY/WX    TMP DP  RH WIND       PRES   REMARKS
BATTLE CREEK   CLOUDY    70  49  47 S9        30.09R
BENTON HARBOR  CLOUDY    69  49  48 S12       30.05R
BIG RAPIDS     MOSUNNY   66  49  53 SW12G20   30.04R
COLDWATER      CLOUDY    69  49  48 S8        30.10F
FREMONT        FAIR      67  51  57 S7        30.03F
HOLLAND        CLOUDY    70  51  51 S15       30.05S
GRAND RAPIDS   CLOUDY    67  52  58 S12       30.06R
IONIA          FAIR      69  49  48 S12G20    30.06R
KALAMAZOO      CLOUDY    70  48  45 S15       30.08S
LUDINGTON      CLOUDY    69  53  58 S12G24    29.98F
MARSHALL       CLOUDY    69  49  48 S7        30.09S
MOUNT PLEASANT SUNNY     69  47  45 SW12      30.05R
MUSKEGON       CLOUDY    70  52  52 S17G24    30.03S
SOUTH HAVEN    CLOUDY    69  52  54 S10       30.05S
$$
MIZ016>042-281500-
NORTHERN LOWER MICHIGAN

CITY           SKY/WX    TMP DP  RH WIND       PRES   REMARKS
ALPENA         SUNNY     70  53  54 SW9       30.00F
BEAVER ISLAND  MOSUNNY   64  54  68 S7        29.95R
BELLAIRE       CLOUDY    65  52  62 S6        29.98S
CADILLAC       SUNNY     67  53  59 SW12G20   30.02R
CHARLEVOIX     CLOUDY    65  53  65 S6        29.99S
FRANKFORT      CLOUDY    68  51  55 S13G21    29.97S
GAYLORD        PTSUNNY   66  50  56 SW9       30.00F
GRAYLING       CLOUDY    64  50  61 SW3       30.02S
HARBOR SPRINGS CLOUDY    66  55  66 CALM      29.97S
HOUGHTON LAKE  CLOUDY    65  51  60 SW8       30.03S
MANISTEE       CLOUDY    67  55  65 S9        29.97S
OSCODA         SUNNY     70  49  47 SW12G18   30.03S
PELLSTON       CLOUDY    69  50  50 SW8       29.97S
ROGERS CITY    SUNNY     70  53  55 SW9       29.99F
TRAVERSE CITY  CLOUDY    69  51  52 SW13G18   29.97R
$$
MIZ007>008-015-281500-
EASTERN UPPER MICHIGAN

CITY           SKY/WX    TMP DP  RH WIND       PRES   REMARKS
KINROSS        SUNNY     68  55  63 S9        29.95F
MACKINAC ISLAN SUNNY     66  54  63 SW7       29.95S
NEWBERRY       SUNNY     64  56  73 S9        29.93R
S. S. MARIE    SUNNY     68  56  65 S8        29.93F
MUNISING         N/A     65  53  65 S8        29.88R
$$
MIZ004>006-011>014-085-281500-
CENTRAL UPPER MICHIGAN

CITY           SKY/WX    TMP DP  RH WIND       PRES   REMARKS
MANISTIQUE     CLOUDY    59  56  89 S6        29.93R
ESCANABA       CLOUDY    66  55  67 S12       29.91R
MENOMINEE      CLOUDY    67  53  61 S8        29.88F
SAWYER-GWINN   SUNNY     63  50  63 S16       29.89R
$$
MIZ001>003-009>011-084-281500-
WESTERN UPPER MICHIGAN

CITY           SKY/WX    TMP DP  RH WIND       PRES   REMARKS
IRON MOUNTAIN  CLOUDY    63  49  60 S8G18     29.85F
HOUGHTON       CLOUDY    64  50  60 S8        29.80F
COPPER HARBOR    N/A     68  48  48 SW8       29.80S
IRONWOOD       CLOUDY    62  51  67 VRB7G16   29.74F
$$

ABBREVIATIONS USED IN REMARKS
   TC - TEMPERATURE IN CELSIUS
  WCI - WIND CHILL INDEX
   HX - HEAT INDEX
  VSB - VISIBILITY





USA.gov is the U.S. government's official web portal to all federal, state and local government web resources and services.